Location: Lambton
(32.9167°S, 151.7000°E)
Time: 01:25:58
(UTC+00:00)

Daily predictions for brighter satellites

Satellite Brightness Start Highest point End
(mag) Time Altitude Azimuth Time Altitude Azimuth Time Altitude Azimuth
Cosmos 1821 Rocket 4.4 07:10:21 10° NNW 07:16:25 71° W 07:22:36 10° S
STARLINK-1281 3.9 07:14:41 10° NW 07:18:50 71° SW 07:23:02 10° SE
NOSS 2-3 (D) 4.3 07:12:45 10° SSW 07:19:08 58° SE 07:24:02 10° NE
STARLINK-1246 3.8 07:17:04 10° SW 07:21:16 80° NW 07:25:27 10° NE
COSMO-SKYMED 1 2.7 07:17:28 10° N 07:21:49 83° WNW 07:26:14 10° SSW
ADEOS Rocket 3.7 07:15:19 10° NNE 07:22:37 87° WNW 07:30:28 10° SSW
STARLINK-1310 4.0 07:19:41 10° NW 07:23:49 63° SW 07:28:01 10° SE
MOS 1-B 4.4 07:19:09 10° SSE 07:25:03 79° ENE 07:30:50 10° N
Cosmos 2228 Rocket 3.3 07:21:12 10° S 07:25:41 53° E 07:30:03 10° NNE
STARLINK-1224 4.0 07:22:03 10° SW 07:26:15 71° NW 07:30:24 10° NE
Cosmos 1515 Rocket 3.9 07:22:41 10° S 07:27:09 75° W 07:31:35 10° N
USA 229 DEB 4.0 07:20:45 10° SW 07:27:25 69° WNW 07:33:48 10° NNE
USA 229 4.0 07:20:51 10° SW 07:27:32 69° WNW 07:33:54 10° NNE
STARLINK-1319 4.2 07:24:40 10° WNW 07:28:47 57° SW 07:32:56 10° SE
Cosmos 2237 Rocket 3.4 07:25:11 10° NNE 07:29:24 22° E 07:33:36 10° SE
STARLINK-1225 4.2 07:27:04 10° SW 07:31:13 63° NW 07:35:20 10° NNE
ALOS 4.1 07:27:12 10° S 07:31:25 33° WSW 07:35:35 10° NW
STARLINK-71 4.5 07:27:54 10° NNW 07:31:33 33° NE 07:35:08 11° ESE
STARLINK-61 3.6 07:28:03 10° NW 07:32:00 81° SW 07:35:59 10° SE
CZ-4B R/B 3.4 07:27:54 10° SSE 07:33:16 54° E 07:38:40 10° N
STARLINK-57 4.5 07:29:46 10° NNW 07:33:20 32° NE 07:36:43 11° ESE
STARLINK-1277 4.3 07:29:43 10° WNW 07:33:47 51° SW 07:37:54 10° SE
ATLAS 5 CENTAUR R/B 3.7 07:28:52 10° NNE 07:34:40 27° ENE 07:40:18 10° ESE
NOAA 6 4.0 07:29:30 10° SSE 07:34:42 75° ENE 07:39:49 10° N
STARLINK-49 4.5 07:31:21 10° N 07:34:53 31° NE 07:38:08 12° ESE
Cosmos 1346 Rocket 2.7 07:31:50 10° N 07:35:45 86° E 07:39:45 10° S
STARLINK-1230 4.5 07:32:04 10° SW 07:36:11 55° NW 07:40:15 10° NNE
Cosmos 1934 Rocket 4.2 07:30:03 10° N 07:36:19 84° W 07:42:47 10° S
STARLINK-27 4.4 07:32:57 10° NNW 07:36:31 33° NE 07:39:43 12° ESE
NOSS 3-1 (C) 4.4 07:30:58 10° SW 07:36:36 47° WNW 07:41:37 10° N
NOSS 3-1 (A) 3.3 07:32:01 10° SSW 07:38:02 84° WNW 07:43:18 10° NNE
STARLINK-74 4.4 07:34:32 10° NNW 07:38:09 34° NE 07:41:17 13° ESE
STARLINK-39 4.3 07:36:10 10° NNW 07:39:48 36° NE 07:42:53 13° ESE
STARLINK-31 4.2 07:37:45 10° NNW 07:41:26 37° NE 07:44:29 14° ESE
Cosmos 1605 Rocket 4.0 07:35:19 10° N 07:41:31 67° E 07:47:42 10° SSE
Radarsat Rocket 4.5 07:34:05 10° SSE 07:41:40 61° ENE 07:48:14 10° N
Okean O Rocket 1.6 07:37:27 10° SSE 07:41:54 66° ENE 07:46:18 10° N
Cosmos 2333 Rocket 2.4 07:36:13 10° NNW 07:41:59 81° WSW 07:47:49 10° SSE
STARLINK-69 4.0 07:39:29 10° NNW 07:43:15 44° NE 07:46:21 14° ESE
STARLINK-21 4.1 07:41:01 10° NNW 07:44:46 41° NE 07:47:43 15° ESE
Milstar 3 4.4 07:36:41 10° W 07:45:50 72° N 08:04:05 10° E
STARLINK-1012 4.5 07:42:23 10° NNW 07:46:09 34° NE 07:48:59 16° ESE
STARLINK-45 3.9 07:42:44 10° NNW 07:46:34 49° NE 07:49:34 16° ESE
H-2A R/B 2.7 07:43:39 10° SSE 07:47:33 78° E 07:51:26 10° N
STARLINK-70 3.9 07:44:19 10° NNW 07:48:09 49° NE 07:51:03 16° ESE
STARLINK-76 3.9 07:44:32 10° NNW 07:48:14 45° NE 07:50:58 17° ESE
Iridium 96 3.3 07:47:31 10° S 07:49:27 64° W 07:51:21 10° N
NOSS 2-3 (C) 4.4 07:43:45 10° SSW 07:50:00 74° WNW 07:54:49 10° NNE
USA 116 4.2 07:46:40 10° NNE 07:51:05 86° WNW 07:56:07 10° SSW
STARLINK-23 3.8 07:47:29 10° NNW 07:51:20 49° NE 07:54:03 18° ESE
Cosmos 1680 Rocket 3.5 07:46:48 10° N 07:52:06 80° ENE 07:57:26 10° SSE
STARLINK-32 3.8 07:49:07 10° NNW 07:52:59 52° NE 07:55:39 19° ESE
Cosmos 923 Rocket 4.3 07:48:27 10° NNW 07:53:46 73° WSW 07:59:11 10° SSE
STARLINK-40 3.7 07:50:45 10° NNW 07:54:37 54° NE 07:57:14 19° ESE
STARLINK-1026 4.1 07:52:06 10° NNW 07:56:03 43° NE 07:58:31 20° ESE
STARLINK-44 3.7 07:52:21 10° NNW 07:56:15 56° NE 07:58:48 20° ESE
STARLINK-37 3.5 07:54:06 10° NNW 07:58:02 65° NE 08:00:36 21° SE
Cosmos 2278 Rocket 3.4 07:54:48 10° SSE 07:58:55 20° ESE 08:00:17 18° ESE
STARLINK-36 3.6 07:55:37 10° NNW 07:59:31 61° NE 08:01:58 22° ESE
Longmarch 3A Rocket 4.4 07:32:19 10° WNW 07:59:48 46° N 08:04:20 14° ENE
STARLINK-68 3.4 07:56:32 10° NW 08:00:25 71° NE 08:02:52 22° SE
ERBS 4.5 07:57:36 10° WSW 08:00:35 29° WNW 08:03:31 10° N
STARLINK-1013 4.0 07:57:00 10° NNW 08:01:01 49° NE 08:03:19 23° ESE
Sich 1 3.0 07:56:48 10° N 08:01:09 90° WSW 08:05:37 10° S
Cosmos 1862 3.7 07:58:01 10° NNW 08:01:59 66° W 08:06:02 10° S
Helios 1A Rocket 3.3 07:58:37 11° SSE 08:02:24 42° E 08:06:15 10° N
STARLINK-24 3.5 07:58:48 10° NW 08:02:49 75° NE 08:05:19 22° SE
STARLINK-63 3.5 07:58:59 10° NW 08:02:56 72° NE 08:05:19 23° SE
STARLINK-35 3.5 08:00:32 10° NW 08:04:28 70° NE 08:06:44 24° SE
STARLINK-51 3.4 08:01:15 10° NW 08:05:08 71° NE 08:07:18 25° SE
STARLINK-1009 3.8 08:01:54 10° NNW 08:05:58 55° NE 08:08:06 26° ESE
STARLINK-30 3.4 08:03:48 10° NW 08:07:46 76° NE 08:09:55 26° SE
Cosmos 1844 Rocket 3.2 08:02:55 10° SSW 08:08:32 63° WNW 08:14:07 10° N
STARLINK-72 3.4 08:05:28 10° NW 08:09:26 80° NE 08:11:31 27° SE
STARLINK-1015 3.7 08:06:50 10° NNW 08:10:56 62° NE 08:12:53 29° ESE
STARLINK-59 3.4 08:08:50 10° NW 08:12:49 89° SW 08:14:50 28° SE
STARLINK-1010 3.6 08:09:02 10° NW 08:13:17 74° NE 08:15:22 29° SE
STARLINK-56 3.4 08:10:23 10° NW 08:14:21 89° NE 08:16:15 30° SE
SL-4 R/B 3.5 08:12:37 10° SSW 08:15:05 20° SSE 08:15:05 20° SSE
Cosmos 2100 Rocket 4.2 08:09:43 10° NNE 08:15:39 47° E 08:21:35 10° SSE
STARLINK-1016 3.6 08:11:45 10° NW 08:15:53 70° NE 08:17:40 33° ESE
STARLINK-73 3.4 08:12:01 10° NW 08:15:59 87° SW 08:17:49 31° SE
STARLINK-38 3.4 08:12:38 10° NW 08:16:32 86° SW 08:18:17 32° SE
STARLINK-50 3.5 08:12:29 10° NW 08:16:33 86° SW 08:18:27 31° SE
NOAA 12 4.0 08:11:30 10° SSE 08:16:49 67° ENE 08:22:02 10° N
OE (NEXTSAT) 4.2 08:13:57 10° SW 08:17:30 84° SE 08:18:57 33° ENE
STARLINK-65 3.5 08:15:19 10° NW 08:19:17 81° SW 08:21:00 33° SE
Cosmos 1666 Rocket 3.6 08:15:34 10° N 08:19:59 82° W 08:24:24 10° S
Okean-O 3.5 08:20:28 29° ENE 08:20:28 29° ENE 08:23:59 10° NNE
STARLINK-1008 3.5 08:16:44 10° NW 08:20:53 79° NE 08:22:28 37° SE
Envisat 3.0 08:15:50 10° S 08:21:00 86° WSW 08:26:06 10° NNW
STARLINK-53 3.6 08:17:04 10° NW 08:21:02 73° SW 08:22:43 33° SSE
Feng Yun 1-1 Rocket 4.1 08:19:11 10° SSE 08:24:35 64° ENE 08:30:00 10° N
Cosmos 1153 Rocket 4.5 08:18:30 10° N 08:24:40 85° W 08:30:54 10° S
Cosmos 1633 Rocket 3.0 08:20:21 10° N 08:24:46 90° W 08:29:16 10° S
STARLINK-1014 3.6 08:21:38 10° NW 08:25:50 88° NE 08:27:16 41° SE
CZ-2C R/B 4.5 08:31:08 15° SSE 08:31:08 15° SSE 08:32:12 10° SSE
Lacrosse 5 rocket 2.5 08:27:04 10° N 08:30:21 29° NE 08:30:21 29° NE
STARLINK-1025 3.6 08:26:37 10° NW 08:30:47 83° SW 08:32:00 45° SE
IRS-1C Rocket 4.0 08:26:53 12° SSE 08:31:54 72° ENE 08:37:09 10° N
Cosmos 2219 Rocket 4.0 08:29:37 10° WNW 08:34:32 30° WSW 08:39:30 10° S
Cosmos 1624 Rocket 4.3 08:30:32 10° S 08:35:33 43° ESE 08:35:39 43° ESE
STARLINK-1017 3.7 08:31:37 10° NW 08:35:47 74° SW 08:36:48 49° SSE
Meteor 1-20 Rocket 4.3 08:34:12 10° N 08:39:41 53° E 08:41:44 36° SE
STARLINK-1023 3.8 08:35:53 10° NW 08:40:03 67° SW 08:40:55 51° SSE
Meteor 1-27 Rocket 3.8 08:34:44 10° S 08:40:41 90° WSW 08:46:38 10° N
STARLINK-25 4.1 08:38:52 10° WNW 08:42:36 48° SW 08:43:13 43° SSW
SMAP 4.3 08:39:31 10° S 08:43:55 40° WSW 08:48:17 10° NW
Cosmos 1980 3.9 08:38:31 10° NNW 08:44:09 70° WSW 08:48:13 20° SSE
STARLINK-1007 4.0 08:41:37 10° NW 08:45:45 59° SW 08:46:22 52° S
Cosmos 2016 Rocket 4.0 08:40:56 10° NNE 08:46:56 53° E 08:48:55 39° SE
Cosmos 1812 4.0 08:45:41 10° SSW 08:49:21 40° W 08:52:58 10° NNW
Cosmos 2173 Rocket 3.9 08:43:13 10° N 08:49:33 87° E 08:55:53 10° S
Cosmos 1371 Rocket 3.9 08:44:15 10° SSW 08:49:40 70° ESE 08:53:11 22° NNE
STARLINK-1048 4.1 08:46:39 10° WNW 08:50:44 53° SW 08:51:09 50° SSW
YAOGAN 6 4.4 08:50:37 12° SSW 08:53:33 31° WSW 08:56:49 10° NW
STARLINK-1049 4.3 08:51:42 10° WNW 08:55:44 47° SW 08:55:57 47° SSW
SL-4 R/B 3.9 08:57:30 10° WNW 08:59:57 18° WSW 08:59:59 18° WSW
Cosmos 1459 Rocket 4.0 08:54:15 10° N 09:00:23 77° W 09:06:43 10° S
BREEZE-M DEB (TANK) 3.5 08:59:16 10° NW 09:05:47 44° N 09:05:47 44° N
Cosmos 1470 Rocket 4.4 09:04:31 10° NNW 09:08:54 51° W 09:10:01 41° SW
Cosmos 2237 Rocket 3.3 09:07:44 10° NW 09:13:05 41° WSW 09:16:10 23° S
Cosmos 1802 Rocket 4.2 09:08:15 10° NNW 09:14:41 74° W 09:20:03 16° S
Cosmos 2056 Rocket 3.8 09:13:04 10° SSW 09:17:37 61° SW 09:17:37 61° SW
ATLAS 5 CENTAUR R/B 3.2 09:12:07 10° NW 09:19:11 56° WSW 09:21:53 36° S
ARGOS Delta rocket 4.3 09:21:13 69° WNW 09:21:13 69° WNW 09:26:01 10° NNW
Cosmos 1725 Rocket 4.0 09:16:47 10° N 09:22:14 70° N 09:22:14 70° N
BREEZE-M DEB (TANK) 4.3 09:20:32 10° WNW 09:24:47 59° SSW 09:28:37 39° SE
SL-16 R/B 2.9 09:20:42 10° NNW 09:24:31 45° NNW 09:24:31 45° NNW
Cosmos 2278 Rocket 3.1 09:37:45 10° SSW 09:42:17 44° WSW 09:42:17 44° WSW
H-2A R/B 4.5 09:53:28 10° W 10:23:45 53° NW 10:23:45 53° NW
